�������l�o���
Date,Time,MP-1(��Sv/h),MP-2(��Sv/h),MP-3(��Sv/h),MP-4(��Sv/h),MP-5(��Sv/h),MP-6(��Sv/h),MP-7(��Sv/h),MP-8(��Sv/h),����,����(m/s),���J
2020/08/17,00:00,0.695,0.993,0.628,1.215,0.875,0.396,0.690,0.646,�쐼,0.6,��
2020/08/17,00:10,0.693,0.995,0.628,1.212,0.876,0.397,0.691,0.646,��쐼,0.9,��
2020/08/17,00:20,0.693,0.993,0.631,1.212,0.873,0.397,0.692,0.647,���쐼,2.0,��
2020/08/17,00:30,0.694,0.994,0.629,1.215,0.875,0.395,0.691,0.646,���쐼,2.9,��
2020/08/17,00:40,0.694,0.994,0.630,1.212,0.874,0.396,0.692,0.647,���쐼,3.1,��
2020/08/17,00:50,0.694,0.993,0.630,1.212,0.874,0.394,0.691,0.647,�쐼,3.3,��
2020/08/17,01:00,0.693,0.993,0.629,1.210,0.873,0.396,0.690,0.647,�쐼,2.5,��
2020/08/17,01:10,0.696,0.994,0.632,1.213,0.873,0.397,0.691,0.645,��쐼,0.6,��
2020/08/17,01:20,0.695,0.993,0.632,1.212,0.874,0.397,0.690,0.646,���k��,0.9,��
2020/08/17,01:30,0.693,0.993,0.629,1.214,0.876,0.397,0.692,0.646,��,0.6,��
2020/08/17,01:40,0.695,0.993,0.630,1.214,0.874,0.396,0.689,0.647,��,0.6,��
2020/08/17,01:50,0.694,0.994,0.630,1.212,0.875,0.397,0.689,0.647,-,CALM,��
2020/08/17,02:00,0.694,0.995,0.631,1.214,0.875,0.396,0.690,0.645,-,CALM,��
2020/08/17,02:10,0.696,0.992,0.629,1.214,0.875,0.396,0.691,0.645,��,1.4,��
2020/08/17,02:20,0.695,0.994,0.630,1.213,0.875,0.396,0.691,0.647,�쐼,1.5,��
2020/08/17,02:30,0.695,0.995,0.631,1.213,0.875,0.397,0.690,0.646,��,2.2,��
2020/08/17,02:40,0.694,0.995,0.631,1.213,0.875,0.396,0.689,0.645,��쐼,2.2,��
2020/08/17,02:50,0.695,0.992,0.630,1.215,0.876,0.396,0.690,0.645,�쐼,1.7,��
2020/08/17,03:00,0.694,0.993,0.629,1.212,0.876,0.396,0.692,0.646,��쐼,2.3,��
2020/08/17,03:10,0.694,0.993,0.630,1.212,0.876,0.396,0.691,0.647,�쐼,2.3,��
2020/08/17,03:20,0.695,0.996,0.628,1.214,0.874,0.396,0.690,0.648,�쐼,2.2,��
2020/08/17,03:30,0.695,0.993,0.630,1.215,0.876,0.395,0.691,0.646,���쐼,2.5,��
2020/08/17,03:40,0.694,0.992,0.630,1.215,0.876,0.396,0.693,0.645,�쐼,2.3,��
2020/08/17,03:50,0.696,0.994,0.629,1.214,0.873,0.396,0.692,0.645,�쐼,2.6,��
2020/08/17,04:00,0.695,0.994,0.628,1.210,0.874,0.396,0.692,0.646,�쐼,2.3,��
2020/08/17,04:10,0.695,0.994,0.629,1.213,0.873,0.396,0.690,0.647,���쐼,2.8,��
2020/08/17,04:20,0.694,0.994,0.630,1.214,0.875,0.397,0.690,0.645,�쐼,3.7,��
2020/08/17,04:30,0.695,0.992,0.628,1.215,0.875,0.397,0.690,0.646,�쐼,3.7,��
2020/08/17,04:40,0.695,0.993,0.630,1.213,0.875,0.397,0.691,0.645,�쐼,4.0,��
2020/08/17,04:50,0.696,0.993,0.631,1.213,0.875,0.398,0.691,0.646,���쐼,5.5,��
2020/08/17,05:00,0.695,0.994,0.628,1.212,0.874,0.397,0.692,0.645,���쐼,5.6,��
2020/08/17,05:10,0.694,0.991,0.630,1.213,0.874,0.397,0.690,0.646,���쐼,6.4,�L
2020/08/17,05:20,0.694,0.993,0.629,1.212,0.875,0.397,0.691,0.646,���쐼,5.1,�L
2020/08/17,05:30,0.694,0.993,0.629,1.213,0.874,0.397,0.691,0.647,���쐼,4.9,�L
2020/08/17,05:40,0.694,0.992,0.629,1.214,0.875,0.396,0.691,0.647,���쐼,3.1,�L
2020/08/17,05:50,0.695,0.993,0.630,1.212,0.874,0.398,0.689,0.646,�쐼,3.4,�L
2020/08/17,06:00,0.695,0.992,0.631,1.214,0.875,0.398,0.690,0.644,�쐼,3.5,�L
2020/08/17,06:10,0.696,0.993,0.630,1.215,0.874,0.397,0.690,0.645,��쐼,4.5,��
2020/08/17,06:20,0.694,0.992,0.630,1.212,0.874,0.397,0.690,0.646,�쐼,4.7,��
2020/08/17,06:30,0.695,0.992,0.628,1.213,0.872,0.398,0.692,0.646,��쐼,5.8,��
2020/08/17,06:40,0.694,0.991,0.628,1.213,0.875,0.395,0.691,0.647,��쐼,6.0,��
2020/08/17,06:50,0.693,0.993,0.629,1.214,0.874,0.396,0.689,0.645,��쐼,4.1,��
2020/08/17,07:00,0.695,0.994,0.630,1.212,0.874,0.396,0.691,0.645,��쐼,3.8,��
2020/08/17,07:10,0.694,0.995,0.629,1.213,0.875,0.396,0.692,0.646,��쐼,4.1,��
2020/08/17,07:20,0.694,0.992,0.630,1.212,0.873,0.396,0.690,0.648,��쐼,3.2,��
2020/08/17,07:30,0.694,0.992,0.630,1.214,0.873,0.397,0.690,0.647,��쐼,2.5,��
2020/08/17,07:40,0.695,0.994,0.629,1.216,0.873,0.398,0.692,0.647,��쐼,2.2,��
2020/08/17,07:50,0.695,0.993,0.628,1.214,0.871,0.398,0.691,0.644,��쐼,2.6,��
2020/08/17,08:00,0.695,0.991,0.628,1.211,0.873,0.397,0.690,0.645,�쐼,1.2,��
2020/08/17,08:10,0.696,0.993,0.629,1.215,0.875,0.398,0.690,0.645,�쐼,1.2,��
2020/08/17,08:20,0.694,0.993,0.628,1.213,0.875,0.396,0.691,0.646,�쐼,1.2,��
2020/08/17,08:30,0.696,0.992,0.629,1.213,0.875,0.396,0.689,0.646,��쐼,2.6,��
2020/08/17,08:40,0.697,0.991,0.630,1.212,0.875,0.396,0.692,0.646,��,1.7,��
2020/08/17,08:50,0.695,0.990,0.628,1.212,0.875,0.397,0.692,0.646,�k��,2.8,��
2020/08/17,09:00,0.696,0.989,0.629,1.212,0.876,0.398,0.690,0.646,�k��,1.7,��
2020/08/17,09:10,0.694,0.988,0.628,1.215,0.876,0.398,0.691,0.645,�k��,1.5,�L
2020/08/17,09:20,0.695,0.990,0.628,1.215,0.876,0.397,0.693,0.646,���k��,0.9,�L
2020/08/17,09:30,0.696,0.989,0.631,1.213,0.877,0.395,0.692,0.647,���쓌,1.7,��
2020/08/17,09:40,0.696,0.989,0.630,1.216,0.876,0.396,0.693,0.645,���쓌,1.2,��
2020/08/17,09:50,0.697,0.990,0.629,1.215,0.875,0.398,0.691,0.644,��쓌,1.2,��
2020/08/17,10:00,0.695,0.988,0.629,1.213,0.873,0.397,0.690,0.647,��쓌,1.2,��
2020/08/17,10:10,0.697,0.989,0.628,1.211,0.875,0.397,0.692,0.644,��쓌,0.9,��
2020/08/17,10:20,0.696,0.987,0.631,1.212,0.873,0.397,0.692,0.646,��,1.7,��
2020/08/17,10:30,0.697,0.991,0.629,1.215,0.872,0.397,0.691,0.645,��쐼,2.6,��
2020/08/17,10:40,0.695,0.988,0.632,1.214,0.874,0.397,0.691,0.645,��쐼,3.7,��
2020/08/17,10:50,0.699,0.990,0.632,1.215,0.875,0.397,0.693,0.645,��쐼,3.6,��
2020/08/17,11:00,0.697,0.990,0.631,1.212,0.876,0.398,0.692,0.645,��쐼,4.4,��
2020/08/17,11:10,0.698,0.988,0.632,1.213,0.876,0.397,0.693,0.648,��쐼,4.2,��
2020/08/17,11:20,0.697,0.988,0.630,1.214,0.877,0.397,0.692,0.647,��쐼,4.2,��
2020/08/17,11:30,0.697,0.988,0.631,1.213,0.874,0.397,0.692,0.645,�쐼,3.8,��
2020/08/17,11:40,0.697,0.991,0.631,1.212,0.873,0.397,0.691,0.645,���쐼,3.0,��
2020/08/17,11:50,0.697,0.993,0.629,1.215,0.875,0.396,0.691,0.646,��,3.5,��
2020/08/17,12:00,0.698,0.990,0.632,1.213,0.874,0.396,0.691,0.645,���쐼,3.8,��
2020/08/17,12:10,0.696,0.992,0.631,1.213,0.876,0.397,0.692,0.644,���쐼,4.9,��
2020/08/17,12:20,0.698,0.991,0.631,1.211,0.875,0.398,0.690,0.646,��쐼,2.3,��
2020/08/17,12:30,0.699,0.993,0.630,1.214,0.876,0.397,0.692,0.645,��,2.0,��
2020/08/17,12:40,0.697,0.995,0.631,1.214,0.877,0.397,0.690,0.644,��쐼,3.4,��
2020/08/17,12:50,0.697,0.995,0.629,1.216,0.874,0.396,0.691,0.646,�쐼,4.0,��
2020/08/17,13:00,0.698,0.993,0.631,1.213,0.880,0.397,0.691,0.645,�쐼,3.5,��
2020/08/17,13:10,0.699,0.990,0.632,1.215,0.877,0.396,0.692,0.645,�쐼,4.4,��
2020/08/17,13:20,0.700,0.994,0.631,1.216,0.879,0.399,0.692,0.645,��쐼,4.8,��
2020/08/17,13:30,0.700,0.995,0.631,1.215,0.879,0.398,0.691,0.645,��쐼,5.0,��
2020/08/17,13:40,0.700,0.993,0.632,1.215,0.878,0.397,0.693,0.646,�쐼,4.1,��
2020/08/17,13:50,0.700,0.996,0.634,1.216,0.879,0.399,0.691,0.646,�쐼,4.9,��
2020/08/17,14:00,0.701,0.995,0.634,1.216,0.881,0.400,0.691,0.646,�쐼,4.8,��
2020/08/17,14:10,0.700,0.995,0.634,1.217,0.880,0.398,0.693,0.645,���쐼,4.2,��
2020/08/17,14:20,0.699,0.997,0.635,1.215,0.881,0.397,0.692,0.645,���쐼,3.1,��
2020/08/17,14:30,0.700,0.996,0.635,1.215,0.883,0.397,0.691,0.645,���쐼,3.4,��
2020/08/17,14:40,0.701,0.997,0.635,1.218,0.882,0.397,0.692,0.647,��,3.4,��
2020/08/17,14:50,0.702,0.997,0.634,1.218,0.882,0.399,0.692,0.645,��,4.1,��
2020/08/17,15:00,0.702,0.998,0.635,1.218,0.881,0.399,0.693,0.646,���쐼,4.7,��
2020/08/17,15:10,0.702,0.998,0.634,1.219,0.880,0.398,0.692,0.646,��,5.1,��
2020/08/17,15:20,0.701,0.997,0.634,1.218,0.882,0.397,0.693,0.646,��,4.7,��
2020/08/17,15:30,0.700,0.998,0.635,1.219,0.883,0.399,0.693,0.646,��,5.4,��
2020/08/17,15:40,0.703,0.999,0.634,1.216,0.883,0.398,0.694,0.646,��,4.6,��
2020/08/17,15:50,0.703,1.004,0.635,1.220,0.881,0.398,0.693,0.646,��,5.7,��
2020/08/17,16:00,0.703,1.003,0.635,1.219,0.884,0.397,0.693,0.647,��,4.3,��
2020/08/17,16:10,0.704,1.001,0.635,1.218,0.883,0.399,0.696,0.646,���쐼,3.2,��
2020/08/17,16:20,0.703,1.002,0.636,1.223,0.884,0.399,0.694,0.646,���쐼,3.9,��
2020/08/17,16:30,0.702,1.003,0.636,1.225,0.881,0.398,0.696,0.647,���쐼,4.0,��
2020/08/17,16:40,0.702,1.002,0.635,1.221,0.881,0.396,0.695,0.648,���쐼,4.5,��
2020/08/17,16:50,0.700,0.998,0.637,1.220,0.882,0.397,0.695,0.648,���쐼,3.9,��
2020/08/17,17:00,0.701,1.001,0.636,1.222,0.884,0.397,0.695,0.647,��,3.4,��
2020/08/17,17:10,0.700,1.000,0.635,1.221,0.883,0.398,0.696,0.646,��,4.9,��
2020/08/17,17:20,0.699,1.001,0.633,1.225,0.884,0.397,0.695,0.647,��,5.1,��
2020/08/17,17:30,0.702,1.000,0.632,1.223,0.883,0.397,0.695,0.646,���k��,4.8,��
2020/08/17,17:40,0.700,0.999,0.633,1.221,0.881,0.399,0.691,0.647,���k��,4.8,��
2020/08/17,17:50,0.701,0.999,0.634,1.222,0.881,0.397,0.695,0.647,��,2.8,��
2020/08/17,18:00,0.701,1.000,0.632,1.222,0.881,0.396,0.693,0.647,���k��,3.2,��
2020/08/17,18:10,0.700,0.999,0.634,1.221,0.881,0.396,0.694,0.647,���k��,2.9,��
2020/08/17,18:20,0.700,0.997,0.633,1.220,0.881,0.396,0.692,0.647,�k��,2.6,��
2020/08/17,18:30,0.700,1.000,0.633,1.219,0.880,0.397,0.692,0.647,���k��,1.4,��
2020/08/17,18:40,0.699,1.001,0.630,1.221,0.882,0.396,0.694,0.646,���k��,2.0,��
2020/08/17,18:50,0.698,1.000,0.631,1.222,0.882,0.396,0.692,0.647,���k��,2.6,��
2020/08/17,19:00,0.700,0.999,0.632,1.223,0.883,0.396,0.692,0.646,���k��,4.8,��
2020/08/17,19:10,0.700,1.000,0.634,1.223,0.882,0.395,0.692,0.648,���k��,3.3,��
2020/08/17,19:20,0.698,1.000,0.631,1.223,0.884,0.395,0.692,0.647,���k��,2.0,��
2020/08/17,19:30,0.699,0.999,0.631,1.220,0.882,0.397,0.694,0.648,�k��,1.9,��
2020/08/17,19:40,0.698,1.000,0.633,1.222,0.881,0.395,0.691,0.647,�k��,1.2,��
2020/08/17,19:50,0.700,0.999,0.634,1.221,0.881,0.396,0.692,0.647,�k�k��,1.2,��
2020/08/17,20:00,0.701,1.001,0.633,1.221,0.883,0.396,0.691,0.648,�k�k��,2.0,��
2020/08/17,20:10,0.700,1.003,0.633,1.222,0.882,0.397,0.692,0.647,�k��,2.5,��
2020/08/17,20:20,0.700,1.002,0.633,1.219,0.882,0.397,0.692,0.646,�k��,3.5,��
2020/08/17,20:30,0.700,1.000,0.633,1.222,0.882,0.397,0.690,0.647,�k��,2.8,��
2020/08/17,20:40,0.700,1.001,0.634,1.222,0.881,0.396,0.692,0.648,�k��,0.9,��
2020/08/17,20:50,0.699,0.999,0.631,1.222,0.883,0.396,0.694,0.647,�k�k��,1.9,��
2020/08/17,21:00,0.696,0.999,0.632,1.220,0.883,0.398,0.693,0.647,�k,3.5,��
2020/08/17,21:10,0.698,1.001,0.633,1.222,0.881,0.396,0.693,0.647,�k�k��,3.2,��
2020/08/17,21:20,0.699,1.001,0.633,1.221,0.883,0.397,0.693,0.645,�k�k��,2.0,��
2020/08/17,21:30,0.699,1.001,0.634,1.222,0.884,0.395,0.692,0.647,�k,2.6,��
2020/08/17,21:40,0.699,1.000,0.634,1.223,0.883,0.396,0.691,0.646,�k,3.1,��
2020/08/17,21:50,0.701,1.002,0.633,1.222,0.881,0.397,0.691,0.647,�k�k��,2.6,��
2020/08/17,22:00,0.699,1.001,0.633,1.222,0.882,0.398,0.694,0.646,�k�k��,2.6,��
2020/08/17,22:10,0.699,0.999,0.633,1.223,0.882,0.396,0.692,0.646,�k,3.1,��
2020/08/17,22:20,0.699,1.002,0.633,1.221,0.884,0.396,0.692,0.647,�k��,1.9,��
2020/08/17,22:30,0.699,0.999,0.633,1.220,0.883,0.396,0.693,0.647,�k�k��,2.6,��
2020/08/17,22:40,0.698,1.002,0.632,1.222,0.883,0.396,0.692,0.647,�k�k��,2.6,��
2020/08/17,22:50,0.700,1.002,0.633,1.221,0.883,0.397,0.691,0.647,�k�k��,3.0,��
2020/08/17,23:00,0.698,1.001,0.634,1.223,0.883,0.397,0.692,0.646,�k��,1.5,��
2020/08/17,23:10,0.700,1.000,0.634,1.220,0.883,0.397,0.692,0.645,�k�k��,2.3,��
2020/08/17,23:20,0.701,1.000,0.634,1.221,0.882,0.396,0.694,0.646,�k��,2.3,��
2020/08/17,23:30,0.698,1.003,0.634,1.221,0.884,0.398,0.691,0.647,�k��,2.3,��
2020/08/17,23:40,0.698,1.003,0.634,1.223,0.883,0.398,0.692,0.647,���k��,1.5,��
2020/08/17,23:50,0.698,1.003,0.634,1.221,0.881,0.398,0.692,0.649,���k��,2.3,��
